Weather History for Lakehurst NAS, NJ

Change the Weather History Date:

Sunday, April 7, 2013

  Actual Average Record
Temperature  
Mean Temperature 49 °F -  
Max Temperature 66 °F 55 °F 73 °F (1997)
Min Temperature 32 °F 40 °F 28 °F (2014)
Degree Days  
Heating Degree Days 16    
Moisture  
Dew Point 34 °F    
Average Humidity 53    
Maximum Humidity 82    
Minimum Humidity 26    
Precipitation  
Precipitation 0.00 in - - ()
Sea Level Pressure  
Sea Level Pressure 30.18 in    
Wind  
Wind Speed 5 mph (South)    
Max Wind Speed 21 mph    
Max Gust Speed 29 mph    
Averages and records for this station are not official NWS values.
T = Trace of Precipitation, MM = Missing Value Source: NWS Daily Summary

Daily Weather History Graph

Daily Weather History Graph

Search for Another Location

Airport:

Trip Planner

Search our weather history database for the weather conditions in past years. The results will help you decide how hot, cold, wet, or windy it might be!

Date:

Astronomy

Apr. 07, 2013 Rise Set
Actual Time 6:31 AM EDT 7:28 PM EDT
Civil Twilight 6:03 AM EDT 7:55 PM EDT
Nautical Twilight 5:31 AM EDT 8:28 PM EDT
Astronomical Twilight 4:57 AM EDT 9:02 PM EDT
Moon 4:47 AM EDT (4/7) 4:57 PM EDT (4/7)
Length of Visible Light 13h 51m
Length of Day
12h 56m
Waning Crescent, 8% of the Moon is Illuminated
Apr 7
Waning Crescent
Apr 10
New
Apr 18
First Quarter
Apr 25
Full
May 2
Last Quarter

Hourly Weather History & Observations

Time (EDT) Temp. Dew Point Humidity Pressure Visibility Wind Dir Wind Speed Gust Speed Precip Events Conditions
12:00 AM 33.1 °F 25.0 °F 72% 30.31 in - Calm Calm - N/A   Clear
1:00 AM 34.0 °F 26.1 °F 73% 30.32 in - Calm Calm - N/A   Clear
2:00 AM 33.1 °F 27.0 °F 78% 30.31 in - Calm Calm - N/A   Clear
3:00 AM 32.0 °F 27.0 °F 82% 30.29 in - Calm Calm - N/A   Clear
4:00 AM 33.1 °F 28.0 °F 82% 30.28 in - Calm Calm - N/A   Clear
5:00 AM 34.0 °F 28.0 °F 79% 30.28 in - Calm Calm - N/A   Clear
6:00 AM 35.1 °F 28.9 °F 78% 30.28 in - Calm Calm - N/A   Clear
8:00 AM 51.1 °F 33.1 °F 50% 30.28 in - SSE 4.6 mph - N/A   Clear
9:00 AM 53.1 °F 33.1 °F 47% 30.26 in - SSE 9.2 mph - N/A   Overcast
10:00 AM 60.1 °F 30.9 °F 33% 30.25 in - South 17.3 mph 23.0 mph N/A   Clear
11:00 AM 62.1 °F 30.9 °F 31% 30.24 in - South 13.8 mph - N/A   Clear
12:00 PM 66.0 °F 30.0 °F 26% 30.19 in - SSW 16.1 mph 23.0 mph N/A   Clear
1:00 PM 66.9 °F 33.1 °F 28% 30.15 in - South 20.7 mph 25.3 mph N/A   Clear
3:00 PM 66.9 °F 37.9 °F 34% 30.10 in - SW 11.5 mph 28.8 mph N/A   Clear
4:00 PM 66.9 °F 39.9 °F 37% 30.06 in - South 18.4 mph 26.5 mph N/A   Clear
5:00 PM 66.9 °F 41.0 °F 39% 30.04 in - SSW 13.8 mph 21.9 mph N/A   Clear
6:00 PM 66.0 °F 42.1 °F 42% 30.05 in - South 10.4 mph - N/A   Clear
7:00 PM 62.1 °F 43.0 °F 50% 30.03 in - South 13.8 mph 23.0 mph N/A   Clear
8:00 PM 63.0 °F 41.0 °F 45% 30.04 in - South 10.4 mph - N/A   Partly Cloudy
8:07 PM - - N/A% - - North - - N/A   Unknown
9:00 PM 62.1 °F 42.1 °F 48% 30.06 in - South 8.1 mph - N/A   Clear
10:00 PM 60.1 °F 42.1 °F 51% 30.05 in - South 4.6 mph - N/A   Clear